| time (UTC) | temp F | wind direction | speed MPH | gust MPH | rain 1hr in | rain 24hr in | rain mn in | humidity % | barometer mb |
| 20260906180008 | 89 | 219 | 4.0 | 8.0 | 0.00 | 0.03 | 0.03 | 65 | 1015.4 |
| 20260906175515 | 89 | 214 | 3.0 | 8.0 | 0.00 | 0.03 | 0.03 | 66 | 1015.5 |
| 20260906175007 | 88 | 200 | 3.0 | 6.0 | 0.00 | 0.03 | 0.03 | 67 | 1015.6 |
| 20260906174509 | 88 | 152 | 2.0 | 8.0 | 0.00 | 0.03 | 0.03 | 70 | 1015.5 |
| 20260906174004 | 88 | 190 | 3.0 | 8.0 | 0.00 | 0.03 | 0.03 | 69 | 1015.7 |
| 20260906173504 | 87 | 188 | 4.0 | 8.0 | 0.00 | 0.03 | 0.03 | 69 | 1015.7 |
| 20260906173021 | 87 | 184 | 2.0 | 7.0 | 0.00 | 0.03 | 0.03 | 69 | 1015.8 |
| 20260906172505 | 87 | 200 | 1.0 | 9.0 | 0.00 | 0.03 | 0.03 | 72 | 1015.8 |
| 20260906172004 | 87 | 132 | 4.0 | 9.0 | 0.00 | 0.03 | 0.03 | 70 | 1015.8 |
| 20260906171520 | 87 | 148 | 3.0 | 6.0 | 0.00 | 0.03 | 0.03 | 71 | 1016.0 |
| 20260906171007 | 86 | 173 | 1.0 | 8.0 | 0.00 | 0.03 | 0.03 | 73 | 1016.0 |
| 20260906170510 | 86 | 185 | 2.0 | 8.0 | 0.00 | 0.03 | 0.03 | 76 | 1016.0 |
| 20260906170023 | 85 | 155 | 3.0 | 8.0 | 0.00 | 0.03 | 0.03 | 75 | 1016.0 |
| 20260906165506 | 85 | 172 | 2.0 | 7.0 | 0.01 | 0.03 | 0.03 | 75 | 1016.0 |
| 20260906165015 | 84 | 164 | 2.0 | 7.0 | 0.01 | 0.03 | 0.03 | 79 | 1016.2 |
| 20260906164523 | 84 | 186 | 3.0 | 7.0 | 0.01 | 0.03 | 0.03 | 80 | 1016.2 |
| 20260906164005 | 83 | 153 | 2.0 | 4.0 | 0.01 | 0.03 | 0.03 | 84 | 1016.3 |
| 20260906163504 | 82 | 184 | 2.0 | 4.0 | 0.01 | 0.03 | 0.03 | 84 | 1016.4 |
| 20260906163014 | 82 | 121 | 0.0 | 4.0 | 0.01 | 0.03 | 0.03 | 87 | 1016.5 |
| 20260906162503 | 81 | 109 | 2.0 | 4.0 | 0.02 | 0.03 | 0.03 | 86 | 1016.5 |
| 20260906162012 | 81 | 92 | 1.0 | 2.0 | 0.02 | 0.03 | 0.03 | 86 | 1016.6 |
| 20260906161512 | 80 | 315 | 0.0 | 2.0 | 0.02 | 0.03 | 0.03 | 86 | 1016.7 |
| 20260906161013 | 80 | 315 | 0.0 | 2.0 | 0.02 | 0.03 | 0.03 | 87 | 1016.6 |
| 20260906160512 | 80 | 315 | 0.0 | 2.0 | 0.02 | 0.03 | 0.03 | 87 | 1016.6 |
| 20260906160028 | 80 | 315 | 1.0 | 2.0 | 0.02 | 0.03 | 0.03 | 87 | 1016.8 |
| 20260906155514 | 80 | 315 | 0.0 | 0.0 | 0.02 | 0.02 | 0.02 | 87 | 1016.8 |
| 20260906155009 | 80 | 315 | 0.0 | 2.0 | 0.02 | 0.02 | 0.02 | 86 | 1016.8 |
| 20260906154540 | 80 | 315 | 0.0 | 4.0 | 0.02 | 0.02 | 0.02 | 86 | 1016.9 |
| 20260906154013 | 80 | 315 | 2.0 | 13.0 | 0.02 | 0.02 | 0.02 | 86 | 1017.0 |
| 20260906153507 | 79 | 334 | 0.0 | 13.0 | 0.02 | 0.02 | 0.02 | 86 | 1016.8 |
| 20260906153031 | 80 | 346 | 5.0 | 13.0 | 0.02 | 0.02 | 0.02 | 86 | 1016.9 |
| 20260906152504 | 79 | 313 | 1.0 | 4.0 | 0.01 | 0.01 | 0.01 | 86 | 1016.4 |
| 20260906152004 | 80 | 169 | 1.0 | 6.0 | 0.01 | 0.01 | 0.01 | 85 | 1016.1 |
| 20260906151512 | 80 | 121 | 1.0 | 6.0 | 0.01 | 0.01 | 0.01 | 85 | 1016.1 |
| 20260906151009 | 80 | 165 | 2.0 | 5.0 | 0.01 | 0.01 | 0.01 | 85 | 1016.1 |
| 20260906150510 | 80 | 155 | 2.0 | 8.0 | 0.01 | 0.01 | 0.01 | 83 | 1016.1 |
| 20260906150027 | 81 | 173 | 2.0 | 9.0 | 0.01 | 0.01 | 0.01 | 82 | 1016.1 |
| 20260906145508 | 81 | 187 | 4.0 | 9.0 | 0.00 | 0.00 | 0.00 | 81 | 1016.2 |
| 20260906145012 | 81 | 146 | 4.0 | 9.0 | 0.00 | 0.00 | 0.00 | 80 | 1016.0 |
| 20260906144532 | 81 | 171 | 2.0 | 10.0 | 0.00 | 0.00 | 0.00 | 81 | 1015.9 |
| 20260906144006 | 81 | 159 | 4.0 | 10.0 | 0.00 | 0.00 | 0.00 | 81 | 1015.9 |
| 20260906143512 | 81 | 169 | 3.0 | 9.0 | 0.00 | 0.00 | 0.00 | 81 | 1015.9 |
| 20260906143024 | 81 | 179 | 3.0 | 9.0 | 0.00 | 0.00 | 0.00 | 82 | 1016.0 |
| 20260906142517 | 80 | 162 | 1.0 | 10.0 | 0.00 | 0.00 | 0.00 | 82 | 1016.2 |
| 20260906142017 | 80 | 197 | 4.0 | 10.0 | 0.00 | 0.00 | 0.00 | 82 | 1016.1 |
| 20260906141510 | 80 | 78 | 3.0 | 9.0 | 0.00 | 0.00 | 0.00 | 82 | 1016.3 |
| 20260906141007 | 80 | 102 | 5.0 | 9.0 | 0.00 | 0.00 | 0.00 | 82 | 1016.3 |
| 20260906140506 | 80 | 201 | 3.0 | 8.0 | 0.00 | 0.00 | 0.00 | 83 | 1016.3 |
| 20260906140019 | 80 | 153 | 2.0 | 12.0 | 0.00 | 0.00 | 0.00 | 83 | 1016.4 |
| 20260906135512 | 79 | 165 | 4.0 | 12.0 | 0.00 | 0.00 | 0.00 | 83 | 1016.5 |
| 20260906135010 | 79 | 198 | 2.0 | 10.0 | 0.00 | 0.00 | 0.00 | 83 | 1016.4 |
| 20260906134524 | 80 | 184 | 4.0 | 10.0 | 0.00 | 0.00 | 0.00 | 82 | 1016.4 |
| 20260906134010 | 80 | 176 | 3.0 | 10.0 | 0.00 | 0.00 | 0.00 | 82 | 1016.4 |
| 20260906133513 | 80 | 141 | 5.0 | 10.0 | 0.00 | 0.00 | 0.00 | 82 | 1016.3 |
| 20260906133045 | 80 | 121 | 2.0 | 7.0 | 0.00 | 0.00 | 0.00 | 83 | 1016.3 |
| 20260906132513 | 79 | 173 | 3.0 | 9.0 | 0.00 | 0.00 | 0.00 | 84 | 1016.3 |
| 20260906132007 | 79 | 161 | 4.0 | 9.0 | 0.00 | 0.00 | 0.00 | 84 | 1016.3 |
| 20260906131536 | 78 | 134 | 2.0 | 6.0 | 0.00 | 0.00 | 0.00 | 85 | 1016.2 |
| 20260906131010 | 78 | 92 | 2.0 | 6.0 | 0.00 | 0.00 | 0.00 | 85 | 1016.3 |
| 20260906130503 | 78 | 106 | 1.0 | 6.0 | 0.00 | 0.00 | 0.00 | 85 | 1016.3 |
| 20260906130018 | 78 | 145 | 1.0 | 6.0 | 0.00 | 0.00 | 0.00 | 85 | 1016.3 |
| 20260906125508 | 77 | 188 | 2.0 | 4.0 | 0.00 | 0.00 | 0.00 | 85 | 1016.1 |
| 20260906125008 | 77 | 121 | 1.0 | 4.0 | 0.00 | 0.00 | 0.00 | 86 | 1016.0 |
| 20260906124521 | 77 | 152 | 1.0 | 4.0 | 0.00 | 0.00 | 0.00 | 86 | 1016.0 |
| 20260906124009 | 77 | 154 | 2.0 | 4.0 | 0.00 | 0.00 | 0.00 | 86 | 1015.9 |
| 20260906123511 | 77 | 102 | 1.0 | 4.0 | 0.00 | 0.00 | 0.00 | 86 | 1015.9 |
| 20260906123036 | 76 | 151 | 2.0 | 8.0 | 0.00 | 0.00 | 0.00 | 86 | 1015.8 |
| 20260906122506 | 76 | 158 | 2.0 | 8.0 | 0.00 | 0.00 | 0.00 | 87 | 1015.7 |
| 20260906122016 | 76 | 175 | 2.0 | 6.0 | 0.00 | 0.00 | 0.00 | 87 | 1015.6 |
| 20260906121523 | 76 | 165 | 1.0 | 6.0 | 0.00 | 0.00 | 0.00 | 87 | 1015.6 |
| 20260906121015 | 76 | 165 | 1.0 | 3.0 | 0.00 | 0.00 | 0.00 | 87 | 1015.6 |
| 20260906120514 | 76 | 165 | 1.0 | 3.0 | 0.00 | 0.00 | 0.00 | 87 | 1015.6 |
| 20260906120017 | 76 | 164 | 1.0 | 4.0 | 0.00 | 0.00 | 0.00 | 87 | 1015.5 |
| 20260906115522 | 76 | 181 | 1.0 | 4.0 | 0.00 | 0.00 | 0.00 | 87 | 1015.4 |
| 20260906115008 | 76 | 155 | 2.0 | 4.0 | 0.00 | 0.00 | 0.00 | 87 | 1015.3 |
| 20260906114517 | 76 | 165 | 2.0 | 4.0 | 0.00 | 0.00 | 0.00 | 87 | 1015.2 |
| 20260906114011 | 76 | 164 | 1.0 | 4.0 | 0.00 | 0.00 | 0.00 | 87 | 1015.2 |
| 20260906113511 | 76 | 165 | 1.0 | 4.0 | 0.00 | 0.00 | 0.00 | 87 | 1015.2 |
| 20260906113027 | 76 | 170 | 1.0 | 4.0 | 0.00 | 0.00 | 0.00 | 87 | 1015.2 |
| 20260906112514 | 76 | 169 | 1.0 | 4.0 | 0.00 | 0.00 | 0.00 | 87 | 1015.2 |
| 20260906112010 | 76 | 169 | 0.0 | 4.0 | 0.00 | 0.00 | 0.00 | 86 | 1015.2 |
| 20260906111530 | 76 | 175 | 1.0 | 3.0 | 0.00 | 0.00 | 0.00 | 86 | 1015.3 |
| 20260906111017 | 76 | 168 | 1.0 | 3.0 | 0.00 | 0.00 | 0.00 | 86 | 1015.4 |
| 20260906110508 | 76 | 168 | 1.0 | 3.0 | 0.00 | 0.00 | 0.00 | 86 | 1015.4 |
| 20260906110030 | 76 | 186 | 0.0 | 3.0 | 0.00 | 0.00 | 0.00 | 86 | 1015.4 |
| 20260906105510 | 76 | 186 | 1.0 | 3.0 | 0.00 | 0.00 | 0.00 | 86 | 1015.4 |
| 20260906105018 | 76 | 173 | 1.0 | 3.0 | 0.00 | 0.00 | 0.00 | 86 | 1015.3 |
| 20260906104533 | 76 | 175 | 1.0 | 3.0 | 0.00 | 0.00 | 0.00 | 86 | 1015.2 |
| 20260906104008 | 76 | 169 | 1.0 | 3.0 | 0.00 | 0.00 | 0.00 | 86 | 1015.0 |
| 20260906103513 | 76 | 159 | 0.0 | 3.0 | 0.00 | 0.00 | 0.00 | 87 | 1014.9 |
| 20260906103027 | 76 | 136 | 1.0 | 3.0 | 0.00 | 0.00 | 0.00 | 87 | 1014.8 |
| 20260906102511 | 76 | 164 | 1.0 | 3.0 | 0.00 | 0.00 | 0.00 | 87 | 1014.8 |
| 20260906102018 | 76 | 158 | 1.0 | 3.0 | 0.00 | 0.00 | 0.00 | 87 | 1014.8 |
| 20260906101523 | 76 | 173 | 1.0 | 2.0 | 0.00 | 0.00 | 0.00 | 87 | 1014.8 |
| 20260906101016 | 76 | 194 | 1.0 | 2.0 | 0.00 | 0.00 | 0.00 | 86 | 1014.7 |
| 20260906100516 | 76 | 172 | 1.0 | 3.0 | 0.00 | 0.00 | 0.00 | 87 | 1014.7 |
| 20260906100023 | 76 | 172 | 1.0 | 3.0 | 0.00 | 0.00 | 0.00 | 87 | 1014.8 |
| 20260906095516 | 76 | 173 | 0.0 | 3.0 | 0.00 | 0.00 | 0.00 | 87 | 1014.9 |
| 20260906095012 | 76 | 167 | 0.0 | 2.0 | 0.00 | 0.00 | 0.00 | 86 | 1014.8 |
| 20260906094517 | 76 | 167 | 0.0 | 2.0 | 0.00 | 0.00 | 0.00 | 86 | 1014.8 |
| 20260906094014 | 76 | 167 | 1.0 | 2.0 | 0.00 | 0.00 | 0.00 | 86 | 1014.9 |
| 20260906093512 | 76 | 167 | 0.0 | 3.0 | 0.00 | 0.00 | 0.00 | 86 | 1014.9 |
| 20260906093033 | 76 | 167 | 0.0 | 3.0 | 0.00 | 0.00 | 0.00 | 86 | 1015.0 |
| 20260906092510 | 76 | 167 | 0.0 | 2.0 | 0.00 | 0.00 | 0.00 | 86 | 1015.0 |
| 20260906092016 | 76 | 167 | 0.0 | 3.0 | 0.00 | 0.00 | 0.00 | 85 | 1014.9 |
| 20260906091525 | 76 | 163 | 1.0 | 3.0 | 0.00 | 0.00 | 0.00 | 85 | 1014.9 |
| 20260906091014 | 76 | 185 | 1.0 | 3.0 | 0.00 | 0.00 | 0.00 | 85 | 1014.8 |
| 20260906090510 | 76 | 179 | 1.0 | 3.0 | 0.00 | 0.00 | 0.00 | 85 | 1014.8 |
| 20260906090033 | 76 | 177 | 1.0 | 3.0 | 0.00 | 0.00 | 0.00 | 85 | 1014.8 |
| 20260906085512 | 76 | 167 | 1.0 | 2.0 | 0.00 | 0.00 | 0.00 | 84 | 1014.9 |
| 20260906085017 | 77 | 167 | 1.0 | 2.0 | 0.00 | 0.00 | 0.00 | 84 | 1014.9 |
| 20260906084535 | 77 | 167 | 1.0 | 2.0 | 0.00 | 0.00 | 0.00 | 84 | 1014.9 |
| 20260906084017 | 77 | 167 | 1.0 | 4.0 | 0.00 | 0.00 | 0.00 | 84 | 1014.7 |
| 20260906083519 | 77 | 165 | 2.0 | 4.0 | 0.00 | 0.00 | 0.00 | 84 | 1014.6 |
| 20260906083029 | 77 | 122 | 2.0 | 4.0 | 0.00 | 0.00 | 0.00 | 84 | 1014.6 |
| 20260906082510 | 77 | 183 | 0.0 | 3.0 | 0.00 | 0.00 | 0.00 | 84 | 1014.5 |
| 20260906082010 | 77 | 173 | 2.0 | 3.0 | 0.00 | 0.00 | 0.00 | 83 | 1014.5 |
| 20260906081542 | 77 | 173 | 1.0 | 3.0 | 0.00 | 0.00 | 0.00 | 83 | 1014.5 |
| 20260906081012 | 77 | 164 | 1.0 | 3.0 | 0.00 | 0.00 | 0.00 | 83 | 1014.6 |
| 20260906080515 | 77 | 173 | 1.0 | 2.0 | 0.00 | 0.00 | 0.00 | 83 | 1014.6 |
| 20260906080026 | 77 | 169 | 1.0 | 5.0 | 0.00 | 0.00 | 0.00 | 83 | 1014.5 |
| 20260906075515 | 78 | 169 | 0.0 | 5.0 | 0.00 | 0.00 | 0.00 | 82 | 1014.4 |
| 20260906075017 | 78 | 186 | 1.0 | 4.0 | 0.00 | 0.00 | 0.00 | 82 | 1014.4 |
| 20260906074524 | 78 | 172 | 1.0 | 4.0 | 0.00 | 0.00 | 0.00 | 82 | 1014.4 |
| 20260906074016 | 78 | 182 | 2.0 | 6.0 | 0.00 | 0.00 | 0.00 | 82 | 1014.5 |
| 20260906073514 | 78 | 196 | 1.0 | 6.0 | 0.00 | 0.00 | 0.00 | 82 | 1014.5 |
| 20260906073031 | 78 | 152 | 3.0 | 6.0 | 0.00 | 0.00 | 0.00 | 82 | 1014.5 |
| 20260906072504 | 78 | 163 | 2.0 | 6.0 | 0.00 | 0.00 | 0.00 | 82 | 1014.5 |
| 20260906072010 | 78 | 180 | 2.0 | 6.0 | 0.00 | 0.00 | 0.00 | 83 | 1014.5 |
| 20260906071514 | 78 | 165 | 1.0 | 6.0 | 0.00 | 0.00 | 0.00 | 83 | 1014.6 |
| 20260906071004 | 78 | 174 | 1.0 | 3.0 | 0.00 | 0.00 | 0.00 | 82 | 1014.6 |
| 20260906070510 | 78 | 142 | 1.0 | 4.0 | 0.00 | 0.00 | 0.00 | 82 | 1014.7 |
| 20260906070014 | 78 | 179 | 1.0 | 4.0 | 0.00 | 0.00 | 0.00 | 82 | 1014.7 |
| 20260906065503 | 78 | 167 | 0.0 | 3.0 | 0.00 | 0.00 | 0.00 | 82 | 1014.8 |
| 20260906065004 | 78 | 156 | 1.0 | 3.0 | 0.00 | 0.00 | 0.00 | 82 | 1014.9 |
| 20260906064506 | 78 | 173 | 2.0 | 4.0 | 0.00 | 0.00 | 0.00 | 82 | 1014.8 |
| 20260906064003 | 78 | 183 | 2.0 | 4.0 | 0.00 | 0.00 | 0.00 | 81 | 1014.9 |
| 20260906063504 | 78 | 158 | 1.0 | 4.0 | 0.00 | 0.00 | 0.00 | 81 | 1014.8 |
| 20260906063011 | 78 | 169 | 1.0 | 4.0 | 0.00 | 0.00 | 0.00 | 81 | 1014.9 |
| 20260906062504 | 79 | 173 | 1.0 | 3.0 | 0.00 | 0.00 | 0.00 | 81 | 1015.0 |
| 20260906062007 | 79 | 160 | 0.0 | 2.0 | 0.00 | 0.00 | 0.00 | 80 | 1014.9 |
| 20260906061505 | 79 | 161 | 1.0 | 4.0 | 0.00 | 0.00 | 0.00 | 80 | 1014.9 |
| 20260906061015 | 79 | 173 | 1.0 | 4.0 | 0.00 | 0.00 | 0.00 | 80 | 1014.9 |
| 20260906060505 | 79 | 159 | 1.0 | 4.0 | 0.00 | 0.00 | 0.00 | 79 | 1014.9 |
| 20260906060017 | 80 | 194 | 2.0 | 3.0 | 0.00 | 0.00 | 0.00 | 79 | 1014.8 |
| 20260906055509 | 80 | 173 | 0.0 | 4.0 | 0.00 | 0.00 | 0.00 | 78 | 1014.9 |
| 20260906055004 | 80 | 179 | 1.0 | 5.0 | 0.00 | 0.00 | 0.00 | 78 | 1014.9 |
| 20260906054523 | 80 | 159 | 1.0 | 6.0 | 0.00 | 0.00 | 0.00 | 78 | 1014.8 |
| 20260906054003 | 80 | 150 | 2.0 | 7.0 | 0.00 | 0.00 | 0.00 | 78 | 1014.8 |
| 20260906053503 | 81 | 149 | 2.0 | 7.0 | 0.00 | 0.00 | 0.00 | 77 | 1014.7 |
| 20260906053007 | 81 | 166 | 0.0 | 5.0 | 0.00 | 0.00 | 0.00 | 77 | 1014.9 |
| 20260906052506 | 81 | 161 | 1.0 | 4.0 | 0.00 | 0.00 | 0.00 | 77 | 1014.9 |
| 20260906052007 | 81 | 165 | 2.0 | 4.0 | 0.00 | 0.00 | 0.00 | 76 | 1014.9 |
| 20260906051520 | 81 | 173 | 1.0 | 4.0 | 0.00 | 0.00 | 0.00 | 76 | 1014.9 |
| 20260906051006 | 81 | 126 | 1.0 | 4.0 | 0.00 | 0.00 | 0.00 | 76 | 1015.0 |
| 20260906050509 | 81 | 150 | 1.0 | 4.0 | 0.00 | 0.00 | 0.00 | 76 | 1015.0 |
| 20260906050018 | 81 | 167 | 1.0 | 4.0 | 0.00 | 0.00 | 0.00 | 76 | 1014.9 |
| 20260906045505 | 82 | 171 | 1.0 | 6.0 | 0.00 | 0.00 | 0.00 | 76 | 1015.0 |
| 20260906045009 | 82 | 152 | 1.0 | 6.0 | 0.00 | 0.00 | 0.00 | 75 | 1014.9 |
| 20260906044512 | 82 | 146 | 2.0 | 4.0 | 0.00 | 0.00 | 0.00 | 75 | 1014.9 |
| 20260906044012 | 82 | 146 | 1.0 | 3.0 | 0.00 | 0.00 | 0.00 | 75 | 1014.8 |
| 20260906043510 | 82 | 135 | 1.0 | 4.0 | 0.00 | 0.00 | 0.00 | 75 | 1014.9 |
| 20260906043004 | 82 | 138 | 1.0 | 4.0 | 0.00 | 0.00 | 0.00 | 75 | 1015.0 |
| 20260906042503 | 82 | 148 | 1.0 | 4.0 | 0.00 | 0.00 | 0.00 | 75 | 1015.0 |
| 20260906042004 | 82 | 171 | 0.0 | 4.0 | 0.00 | 0.00 | 0.00 | 75 | 1015.0 |
| 20260906041507 | 82 | 171 | 1.0 | 4.0 | 0.00 | 0.00 | 0.00 | 74 | 1014.9 |
| 20260906041008 | 83 | 148 | 1.0 | 5.0 | 0.00 | 0.00 | 0.00 | 75 | 1014.9 |
| 20260906040507 | 83 | 168 | 1.0 | 6.0 | 0.00 | 0.00 | 0.00 | 75 | 1014.9 |
| 20260906040018 | 83 | 159 | 1.0 | 6.0 | 0.00 | 0.00 | 0.00 | 75 | 1015.0 |
| 20260906035508 | 83 | 167 | 0.0 | 2.0 | 0.00 | 0.00 | 0.00 | 75 | 1014.9 |
| 20260906035006 | 83 | 141 | 0.0 | 3.0 | 0.00 | 0.00 | 0.00 | 75 | 1014.9 |
| 20260906034527 | 83 | 139 | 1.0 | 3.0 | 0.00 | 0.00 | 0.00 | 75 | 1014.9 |
| 20260906034008 | 83 | 121 | 0.0 | 3.0 | 0.00 | 0.00 | 0.00 | 75 | 1014.9 |
| 20260906033504 | 83 | 107 | 1.0 | 5.0 | 0.00 | 0.00 | 0.00 | 75 | 1014.7 |
| 20260906033024 | 83 | 126 | 1.0 | 5.0 | 0.00 | 0.00 | 0.00 | 75 | 1014.7 |
| 20260906032507 | 83 | 176 | 1.0 | 3.0 | 0.00 | 0.00 | 0.00 | 74 | 1014.7 |
| 20260906032004 | 83 | 144 | 1.0 | 3.0 | 0.00 | 0.00 | 0.00 | 74 | 1014.6 |
| 20260906031511 | 84 | 179 | 1.0 | 3.0 | 0.00 | 0.00 | 0.00 | 74 | 1014.6 |
| 20260906031005 | 84 | 157 | 0.0 | 2.0 | 0.00 | 0.00 | 0.00 | 74 | 1014.5 |
| 20260906030507 | 84 | 148 | 0.0 | 3.0 | 0.00 | 0.00 | 0.00 | 74 | 1014.3 |
| 20260906030016 | 84 | 167 | 1.0 | 3.0 | 0.00 | 0.00 | 0.00 | 73 | 1014.1 |
| 20260906025504 | 84 | 162 | 1.0 | 5.0 | 0.00 | 0.00 | 0.00 | 73 | 1014.0 |
| 20260906025011 | 84 | 168 | 1.0 | 6.0 | 0.00 | 0.00 | 0.00 | 73 | 1014.0 |
| 20260906024516 | 84 | 146 | 1.0 | 6.0 | 0.00 | 0.00 | 0.00 | 74 | 1014.0 |
| 20260906024012 | 84 | 105 | 1.0 | 4.0 | 0.00 | 0.00 | 0.00 | 73 | 1013.8 |
| 20260906023513 | 84 | 145 | 1.0 | 3.0 | 0.00 | 0.00 | 0.00 | 73 | 1013.9 |
| 20260906023012 | 84 | 171 | 1.0 | 3.0 | 0.00 | 0.00 | 0.00 | 73 | 1013.9 |
| 20260906022513 | 85 | 94 | 1.0 | 3.0 | 0.00 | 0.00 | 0.00 | 73 | 1013.9 |
| 20260906022010 | 85 | 163 | 1.0 | 3.0 | 0.00 | 0.00 | 0.00 | 73 | 1013.8 |
| 20260906021509 | 85 | 150 | 1.0 | 3.0 | 0.00 | 0.00 | 0.00 | 72 | 1013.6 |
| 20260906021004 | 85 | 156 | 1.0 | 3.0 | 0.00 | 0.00 | 0.00 | 72 | 1013.5 |
| 20260906020504 | 85 | 150 | 1.0 | 3.0 | 0.00 | 0.00 | 0.00 | 72 | 1013.4 |
| 20260906020010 | 85 | 124 | 0.0 | 3.0 | 0.00 | 0.00 | 0.00 | 72 | 1013.3 |
| 20260906015507 | 85 | 147 | 0.0 | 5.0 | 0.00 | 0.00 | 0.00 | 72 | 1013.3 |
| 20260906015008 | 86 | 147 | 1.0 | 5.0 | 0.00 | 0.00 | 0.00 | 71 | 1013.2 |
| 20260906014526 | 86 | 143 | 0.0 | 2.0 | 0.00 | 0.00 | 0.00 | 71 | 1013.2 |
| 20260906014011 | 86 | 132 | 1.0 | 5.0 | 0.00 | 0.00 | 0.00 | 70 | 1013.1 |
| 20260906013504 | 86 | 127 | 1.0 | 5.0 | 0.00 | 0.00 | 0.00 | 70 | 1013.0 |
| 20260906013024 | 86 | 128 | 1.0 | 4.0 | 0.00 | 0.00 | 0.00 | 70 | 1013.0 |
| 20260906012512 | 87 | 118 | 1.0 | 4.0 | 0.00 | 0.00 | 0.00 | 70 | 1012.9 |
| 20260906012004 | 87 | 139 | 0.0 | 5.0 | 0.00 | 0.00 | 0.00 | 69 | 1013.0 |
| 20260906011526 | 87 | 115 | 1.0 | 5.0 | 0.00 | 0.00 | 0.00 | 69 | 1012.9 |
| 20260906011010 | 87 | 116 | 0.0 | 4.0 | 0.00 | 0.00 | 0.00 | 69 | 1012.8 |
| 20260906010514 | 87 | 129 | 0.0 | 6.0 | 0.00 | 0.00 | 0.00 | 68 | 1012.9 |
| 20260906010008 | 88 | 130 | 2.0 | 7.0 | 0.00 | 0.00 | 0.00 | 68 | 1012.9 |
| 20260906005507 | 88 | 111 | 2.0 | 7.0 | 0.00 | 0.00 | 0.00 | 68 | 1012.8 |
| 20260906005006 | 88 | 99 | 3.0 | 5.0 | 0.00 | 0.00 | 0.00 | 68 | 1012.8 |
| 20260906004516 | 89 | 129 | 2.0 | 7.0 | 0.00 | 0.00 | 0.00 | 68 | 1012.8 |
| 20260906004009 | 89 | 132 | 2.0 | 7.0 | 0.00 | 0.00 | 0.00 | 67 | 1012.7 |
| 20260906003510 | 89 | 89 | 2.0 | 6.0 | 0.00 | 0.00 | 0.00 | 67 | 1012.7 |
| 20260906003017 | 90 | 118 | 1.0 | 6.0 | 0.00 | 0.00 | 0.00 | 66 | 1012.7 |
| 20260906002513 | 90 | 94 | 2.0 | 4.0 | 0.00 | 0.00 | 0.00 | 65 | 1012.7 |
| 20260906002010 | 90 | 125 | 1.0 | 7.0 | 0.00 | 0.00 | 0.00 | 64 | 1012.6 |
| 20260906001514 | 90 | 145 | 3.0 | 8.0 | 0.00 | 0.00 | 0.00 | 64 | 1012.5 |
| 20260906001014 | 90 | 123 | 1.0 | 8.0 | 0.00 | 0.00 | 0.00 | 63 | 1012.6 |
| 20260906000510 | 91 | 189 | 2.0 | 7.0 | 0.00 | 0.00 | 0.00 | 63 | 1012.5 |
| 20260906000011 | 91 | 159 | 2.0 | 7.0 | 0.00 | 0.00 | 0.00 | 63 | 1012.6 |
| 20260905235513 | 91 | 179 | 2.0 | 6.0 | 0.00 | 0.00 | 0.00 | 63 | 1012.6 |
| 20260905235010 | 91 | 152 | 2.0 | 6.0 | 0.00 | 0.00 | 0.00 | 63 | 1012.6 |
| 20260905234511 | 91 | 152 | 1.0 | 7.0 | 0.00 | 0.00 | 0.00 | 62 | 1012.6 |
| 20260905234006 | 92 | 154 | 3.0 | 10.0 | 0.00 | 0.00 | 0.00 | 61 | 1012.6 |
| 20260905233508 | 92 | 101 | 3.0 | 10.0 | 0.00 | 0.00 | 0.00 | 61 | 1012.5 |
| 20260905233017 | 92 | 131 | 3.0 | 8.0 | 0.00 | 0.00 | 0.00 | 61 | 1012.6 |
| 20260905232511 | 92 | 146 | 2.0 | 6.0 | 0.00 | 0.00 | 0.00 | 61 | 1012.5 |
| 20260905232006 | 92 | 176 | 2.0 | 6.0 | 0.00 | 0.00 | 0.00 | 61 | 1012.5 |
| 20260905231526 | 92 | 171 | 1.0 | 6.0 | 0.00 | 0.00 | 0.00 | 61 | 1012.6 |
| 20260905231010 | 92 | 172 | 2.0 | 6.0 | 0.00 | 0.00 | 0.00 | 60 | 1012.5 |
| 20260905230514 | 92 | 150 | 2.0 | 8.0 | 0.00 | 0.00 | 0.00 | 60 | 1012.5 |
| 20260905230028 | 92 | 59 | 3.0 | 8.0 | 0.00 | 0.00 | 0.00 | 59 | 1012.5 |
| 20260905225508 | 92 | 121 | 1.0 | 8.0 | 0.00 | 0.00 | 0.00 | 60 | 1012.4 |
| 20260905225017 | 92 | 106 | 4.0 | 8.0 | 0.00 | 0.00 | 0.00 | 60 | 1012.4 |
| 20260905224529 | 92 | 190 | 4.0 | 9.0 | 0.00 | 0.00 | 0.00 | 59 | 1012.4 |
| 20260905224009 | 92 | 190 | 3.0 | 9.0 | 0.00 | 0.00 | 0.00 | 60 | 1012.3 |
| 20260905223507 | 92 | 152 | 2.0 | 9.0 | 0.00 | 0.00 | 0.00 | 60 | 1012.2 |
| 20260905223014 | 92 | 135 | 4.0 | 14.0 | 0.00 | 0.00 | 0.00 | 60 | 1012.1 |
| 20260905222511 | 92 | 77 | 5.0 | 14.0 | 0.00 | 0.00 | 0.00 | 60 | 1012.1 |
| 20260905222008 | 92 | 142 | 5.0 | 11.0 | 0.00 | 0.00 | 0.00 | 60 | 1012.1 |
| 20260905221518 | 92 | 165 | 4.0 | 10.0 | 0.00 | 0.00 | 0.00 | 61 | 1012.1 |
| 20260905221011 | 92 | 146 | 4.0 | 10.0 | 0.00 | 0.00 | 0.00 | 60 | 1012.2 |
| 20260905220518 | 92 | 92 | 2.0 | 10.0 | 0.00 | 0.00 | 0.00 | 59 | 1012.3 |
| 20260905220012 | 92 | 93 | 3.0 | 10.0 | 0.00 | 0.00 | 0.00 | 59 | 1012.2 |
| 20260905215515 | 92 | 140 | 4.0 | 10.0 | 0.00 | 0.00 | 0.00 | 57 | 1012.3 |
| 20260905215012 | 92 | 93 | 4.0 | 10.0 | 0.00 | 0.00 | 0.00 | 58 | 1012.3 |
| 20260905214530 | 92 | 203 | 2.0 | 10.0 | 0.00 | 0.00 | 0.00 | 58 | 1012.4 |
| 20260905214014 | 92 | 186 | 5.0 | 10.0 | 0.00 | 0.00 | 0.00 | 58 | 1012.4 |
| 20260905213509 | 92 | 145 | 5.0 | 10.0 | 0.00 | 0.00 | 0.00 | 57 | 1012.5 |
| 20260905213030 | 92 | 98 | 3.0 | 10.0 | 0.00 | 0.00 | 0.00 | 58 | 1012.7 |
| 20260905212509 | 92 | 177 | 3.0 | 10.0 | 0.00 | 0.00 | 0.00 | 57 | 1012.7 |
| 20260905212008 | 92 | 111 | 3.0 | 10.0 | 0.00 | 0.00 | 0.00 | 58 | 1012.8 |
| 20260905211521 | 92 | 127 | 4.0 | 10.0 | 0.00 | 0.00 | 0.00 | 58 | 1012.9 |
| 20260905211010 | 91 | 55 | 4.0 | 10.0 | 0.00 | 0.00 | 0.00 | 59 | 1012.9 |
| 20260905210511 | 91 | 135 | 6.0 | 10.0 | 0.00 | 0.00 | 0.00 | 58 | 1013.1 |
| 20260905210027 | 91 | 201 | 3.0 | 10.0 | 0.00 | 0.00 | 0.00 | 57 | 1013.2 |
| 20260905205509 | 91 | 157 | 5.0 | 10.0 | 0.00 | 0.00 | 0.00 | 56 | 1013.3 |
| 20260905205014 | 91 | 88 | 2.0 | 12.0 | 0.00 | 0.00 | 0.00 | 58 | 1013.3 |
| 20260905204525 | 91 | 104 | 4.0 | 12.0 | 0.00 | 0.00 | 0.00 | 58 | 1013.4 |
| 20260905204006 | 91 | 62 | 4.0 | 12.0 | 0.00 | 0.00 | 0.00 | 58 | 1013.5 |
| 20260905203516 | 90 | 132 | 6.0 | 11.0 | 0.00 | 0.00 | 0.00 | 56 | 1013.6 |
| 20260905203027 | 91 | 98 | 5.0 | 13.0 | 0.00 | 0.00 | 0.00 | 56 | 1013.8 |
| 20260905202518 | 90 | 94 | 5.0 | 12.0 | 0.00 | 0.00 | 0.00 | 56 | 1013.9 |
| 20260905202016 | 90 | 146 | 4.0 | 13.0 | 0.00 | 0.00 | 0.00 | 56 | 1014.1 |
| 20260905201521 | 90 | 98 | 5.0 | 13.0 | 0.00 | 0.00 | 0.00 | 56 | 1014.3 |
| 20260905201009 | 90 | 44 | 4.0 | 10.0 | 0.00 | 0.00 | 0.00 | 57 | 1014.4 |
| 20260905200511 | 90 | 46 | 3.0 | 9.0 | 0.00 | 0.00 | 0.00 | 57 | 1014.4 |
| 20260905200014 | 90 | 125 | 3.0 | 15.0 | 0.00 | 0.00 | 0.00 | 59 | 1014.5 |
| 20260905195516 | 90 | 92 | 5.0 | 15.0 | 0.00 | 0.00 | 0.00 | 59 | 1014.5 |
| 20260905195013 | 89 | 75 | 5.0 | 12.0 | 0.00 | 0.00 | 0.00 | 59 | 1014.6 |
| 20260905194529 | 90 | 48 | 6.0 | 12.0 | 0.00 | 0.00 | 0.00 | 58 | 1014.6 |
| 20260905194016 | 89 | 183 | 6.0 | 12.0 | 0.00 | 0.00 | 0.00 | 59 | 1014.6 |
| 20260905193508 | 89 | 107 | 6.0 | 12.0 | 0.00 | 0.00 | 0.00 | 60 | 1014.7 |
| 20260905193031 | 89 | 69 | 5.0 | 15.0 | 0.00 | 0.00 | 0.00 | 59 | 1014.8 |
| 20260905192509 | 89 | 40 | 6.0 | 15.0 | 0.00 | 0.00 | 0.00 | 60 | 1014.8 |
| 20260905192003 | 89 | 188 | 3.0 | 11.0 | 0.00 | 0.00 | 0.00 | 61 | 1014.9 |
| 20260905191511 | 89 | 113 | 3.0 | 12.0 | 0.00 | 0.00 | 0.00 | 63 | 1015.1 |
| 20260905191007 | 89 | 98 | 6.0 | 12.0 | 0.00 | 0.00 | 0.00 | 60 | 1015.3 |
| 20260905190506 | 89 | 94 | 3.0 | 12.0 | 0.00 | 0.00 | 0.00 | 63 | 1015.4 |
| 20260905190039 | 89 | 140 | 5.0 | 13.0 | 0.00 | 0.00 | 0.00 | 63 | 1015.5 |
| 20260905185510 | 89 | 70 | 5.0 | 13.0 | 0.00 | 0.00 | 0.00 | 62 | 1015.7 |
| 20260905185004 | 89 | 112 | 7.0 | 12.0 | 0.00 | 0.00 | 0.00 | 62 | 1015.9 |
| 20260905184531 | 89 | 67 | 6.0 | 18.0 | 0.00 | 0.00 | 0.00 | 64 | 1015.9 |
| 20260905184012 | 88 | 50 | 8.0 | 18.0 | 0.00 | 0.00 | 0.00 | 64 | 1016.0 |
| 20260905183504 | 88 | 25 | 8.0 | 13.0 | 0.00 | 0.00 | 0.00 | 63 | 1016.1 |
| 20260905183028 | 88 | 90 | 8.0 | 18.0 | 0.00 | 0.00 | 0.00 | 64 | 1016.2 |
| 20260905182507 | 88 | 48 | 10.0 | 18.0 | 0.00 | 0.00 | 0.00 | 64 | 1016.3 |
| 20260905182006 | 88 | 30 | 9.0 | 17.0 | 0.00 | 0.00 | 0.00 | 65 | 1016.2 |
| 20260905181516 | 88 | 28 | 12.0 | 17.0 | 0.00 | 0.00 | 0.00 | 64 | 1016.3 |
| 20260905181006 | 88 | 56 | 9.0 | 16.0 | 0.00 | 0.00 | 0.00 | 64 | 1016.1 |
| 20260905180507 | 89 | 86 | 7.0 | 14.0 | 0.00 | 0.00 | 0.00 | 63 | 1016.0 |